Regional Weather Roundup
Issued by NWS Sioux Falls, SD

Home | Current Version | Previous Version | Graphics & Text | Print | Product List | Glossary Off
Versions: 1 2 3 4 5 6 7 8 9 10 11 12 13 14 15 16 17 18 19 20 21 22 23 24 25 26 27 28 29 30 31 32 33 34 35 36 37 38 39 40 41 42 43 44 45 46 47 48 49 50

000
ASUS43 KFSD 270610
RWRFSD

WEATHER ROUNDUP FOR SE SOUTH DAKOTA/SW MINNESOTA/NW IOWA
NATIONAL WEATHER SERVICE SIOUX FALLS SD
100 AM CDT FRI MAR 27 2015

NOTE: "FAIR" INDICATES FEW OR NO CLOUDS BELOW 12,000 FEET WITH NO
SIGNIFICANT WEATHER AND OR OBSTRUCTIONS TO VISIBILITY.


SDZ038>040-050-052>070-270700-
SOUTHEAST SOUTH DAKOTA

CITY           SKY/WX    TMP DP  RH WIND       PRES   REMARKS
CHAMBERLAIN    PTCLDY    23  16  77 E5        30.26S WCI  16
6HR MIN TEMP:  23; 6HR MAX TEMP:  35;

HURON          CLEAR     20  12  71 NE5       30.28S WCI  13
6HR MIN TEMP:  18; 6HR MAX TEMP:  36;

MADISON        FAIR      18  14  86 N8        30.25S WCI   7
MITCHELL       CLEAR     22  14  71 N3        30.29R
6HR MIN TEMP:  22; 6HR MAX TEMP:  38;

SIOUX FALLS    CLEAR     22  14  71 N7        30.26R WCI  13
6HR MIN TEMP:  22; 6HR MAX TEMP:  38;

WINNER         FAIR      32  28  85 SW5       30.23F WCI  27
YANKTON        CLEAR     25  16  68 N5        30.28R WCI  19
$$

MNZ071-072-080-081-089-090-097-098-270700-
SOUTHWEST MINNESOTA

CITY           SKY/WX    TMP DP  RH WIND       PRES   REMARKS
FAIRMONT       CLEAR     25  12  58 NW10      30.20R WCI  15
JACKSON        CLEAR     23  18  80 NW9       30.21S WCI  13
LUVERNE        CLEAR     27  16  63 N9        30.25S WCI  17
MARSHALL       CLEAR     21  10  63 NW9       30.26S WCI  11
6HR MIN TEMP:  19; 6HR MAX TEMP:  30;

MONTEVIDEO     CLEAR     21  16  79 N8        30.28S WCI  12
PIPESTONE      CLEAR     21  14  73 N5        30.23S WCI  15
REDWOOD FALLS  CLEAR     24  14  65 N7        30.25R WCI  16
TRACY          CLEAR     23  16  75 NW8       30.25R WCI  13
WINDOM         CLEAR     21  16  79 NW12      30.22S WCI   9
WORTHINGTON    CLEAR     19  12  73 N9        30.23S WCI   9
$$

IAZ001>003-012>014-020>022-031-032-NEZ013-014-SDZ071-270700-
NORTHWEST IOWA

CITY           SKY/WX    TMP DP  RH WIND       PRES   REMARKS
CHEROKEE       CLEAR     25  19  78 N5        30.24R WCI  19
DENISON        CLOUDY    28  21  74 N9        30.20S WCI  20
ESTHERVILLE    CLEAR     23  17  78 NW10      30.20S WCI  12
LE MARS        CLEAR     23  19  86 CALM      30.26R
ORANGE CITY    CLEAR     27  19  74 N6        30.24R WCI  20
SHELDON        CLEAR     19  16  86 N7        30.23S WCI  10
SIOUX CITY     CLEAR     28  17  63 N8        30.25S WCI  20
6HR MIN TEMP:  28; 6HR MAX TEMP:  39;

SPENCER        CLEAR     18  14  84 NW7       30.22S WCI   9
6HR MIN TEMP:  18; 6HR MAX TEMP:  34;

STORM LAKE     CLEAR     23  18  80 N9        30.22R WCI  13
$$

ABBREVIATIONS USED IN REMARKS
   TC - TEMPERATURE IN CELSIUS
  WCI - WIND CHILL INDEX
   HX - HEAT INDEX
  VSB - VISIBILITY



USA.gov is the U.S. government's official web portal to all federal, state and local government web resources and services.